GW7047 Weather Reports


time (UTC)temp
C
wind
direction
speed
KPH
gust
KPH
rain 1hr
cm
rain 24hr
cm
rain mn
cm
humidity
%
barometer
mb
20260906164529 35 61 3.2 11.3 0.00 0.69 0.00 51 1017.1
20260906163037 35 306 1.6 6.4 0.00 0.69 0.00 49 1017.1
20260906161518 34 34 3.2 9.7 0.00 0.69 0.00 51 1017.1
20260906160016 34 47 1.6 6.4 0.00 0.69 0.00 52 1017.1
20260906154528 33 26 3.2 6.4 0.00 0.69 0.00 51 1017.0
20260906153007 33 138 1.6 4.8 0.00 0.69 0.00 52 1017.0
20260906151511 33 104 0.0 6.4 0.00 0.69 0.00 58 1017.0
20260906150023 32 333 1.6 3.2 0.00 0.69 0.00 57 1016.8
20260906144529 31 12 0.0 4.8 0.00 0.69 0.00 60 1016.8
20260906143035 31 121 3.2 12.9 0.00 0.69 0.00 61 1016.8
20260906141511 30 82 1.6 4.8 0.00 0.69 0.00 66 1016.8
20260906140028 29 352 1.6 3.2 0.00 0.69 0.00 67 1016.7
20260906134518 28 21 0.0 3.2 0.00 0.69 0.00 73 1016.7
20260906133030 26 159 0.0 3.2 0.00 0.69 0.00 76 1016.7
20260906131515 25 138 1.6 3.2 0.00 0.69 0.00 79 1016.6
20260906130013 23 121 0.0 1.6 0.00 0.69 0.00 83 1016.6
20260906124518 22 109 0.0 3.2 0.00 0.69 0.00 87 1016.6
20260906123027 21 129 0.0 3.2 0.00 0.69 0.00 91 1016.3
20260906121532 20 165 0.0 0.0 0.00 0.69 0.00 92 1016.0
20260906120013 20 112 0.0 0.0 0.00 0.69 0.00 92 1016.0
20260906114518 20 112 0.0 0.0 0.00 0.69 0.00 92 1015.8
20260906113025 20 112 0.0 0.0 0.00 0.69 0.00 91 1015.6
20260906111530 21 112 0.0 0.0 0.00 0.69 0.00 91 1015.5
20260906110029 21 112 0.0 0.0 0.00 0.69 0.00 90 1015.5
20260906104526 21 112 0.0 0.0 0.00 0.69 0.00 89 1015.5
20260906103024 21 112 0.0 0.0 0.00 0.69 0.00 89 1015.4
20260906101528 21 112 0.0 0.0 0.00 0.69 0.00 88 1015.4
20260906100031 22 112 0.0 0.0 0.00 0.69 0.00 87 1015.3
20260906094539 22 112 0.0 0.0 0.00 0.69 0.00 85 1015.1
20260906093032 22 112 0.0 0.0 0.00 0.69 0.00 84 1015.1
20260906091529 23 112 0.0 0.0 0.00 0.69 0.00 82 1015.0
20260906090034 23 129 0.0 6.4 0.00 0.69 0.00 80 1015.0
20260906084545 22 155 1.6 4.8 0.00 0.69 0.00 83 1014.9
20260906083019 22 71 0.0 0.0 0.00 0.69 0.00 83 1014.9
20260906081530 23 71 0.0 0.0 0.00 0.69 0.00 82 1014.8
20260906080034 23 71 0.0 0.0 0.00 0.69 0.00 81 1014.9
20260906074509 22 71 0.0 0.0 0.00 0.69 0.00 82 1014.9
20260906073015 22 71 0.0 0.0 0.00 0.69 0.00 85 1015.0
20260906071514 21 71 0.0 0.0 0.00 0.69 0.00 89 1015.1
20260906070004 21 71 0.0 0.0 0.00 0.69 0.00 91 1015.2
20260906064509 21 71 0.0 0.0 0.00 0.69 0.00 91 1015.2
20260906063011 21 71 0.0 0.0 0.00 0.69 0.00 92 1015.5
20260906061516 21 71 0.0 0.0 0.00 0.69 0.00 92 1015.4
20260906060020 21 71 0.0 0.0 0.00 0.69 0.00 92 1015.5
20260906054507 22 71 0.0 0.0 0.00 0.69 0.00 92 1015.4
20260906053011 22 70 0.0 0.0 0.00 0.69 0.00 91 1015.4
20260906051518 22 71 0.0 0.0 0.00 0.69 0.00 90 1015.4
20260906050025 22 71 0.0 0.0 0.00 0.69 0.00 90 1015.4
20260906044508 22 71 0.0 0.0 0.00 0.69 0.69 91 1015.3
20260906043010 22 71 0.0 0.0 0.00 0.69 0.69 90 1015.5
20260906041517 22 71 0.0 0.0 0.00 0.69 0.69 89 1015.4
20260906040031 22 71 0.0 0.0 0.00 0.69 0.69 90 1015.2
20260906034534 22 71 0.0 3.2 0.00 0.69 0.69 89 1015.3
20260906033021 22 71 0.0 3.2 0.00 0.69 0.69 87 1015.2
20260906031511 23 71 0.0 1.6 0.00 0.69 0.69 87 1015.1
20260906030017 23 71 0.0 0.0 0.00 0.69 0.69 87 1014.9
20260906024523 23 71 0.0 0.0 0.00 0.69 0.69 85 1014.7
20260906023026 23 71 0.0 0.0 0.00 0.69 0.69 83 1014.6
20260906021512 24 71 0.0 0.0 0.00 0.69 0.69 83 1014.6
20260906020018 24 71 0.0 3.2 0.00 0.69 0.69 81 1014.1
20260906014537 25 9 0.0 1.6 0.00 0.69 0.69 78 1013.9
20260906013026 26 96 0.0 3.2 0.00 0.69 0.69 72 1013.9
20260906011517 25 117 1.6 3.2 0.00 0.69 0.69 73 1013.7
20260906010016 26 132 0.0 3.2 0.00 0.69 0.69 74 1013.8
20260906004535 26 93 0.0 3.2 0.00 0.69 0.69 73 1013.8
20260906003043 26 329 0.0 6.4 0.00 0.69 0.69 72 1014.1
20260906001531 27 57 1.6 12.9 0.00 0.69 0.69 73 1014.1
20260906000011 25 58 1.6 6.4 0.00 0.69 0.69 87 1014.1
20260905234528 25 153 0.0 3.2 0.61 0.69 0.69 89 1013.7
20260905233029 24 153 0.0 3.2 0.69 0.69 0.69 88 1013.6
20260905231537 24 231 0.0 3.2 0.69 0.69 0.69 85 1013.8
20260905230032 25 27 1.6 37.0 0.69 0.69 0.69 78 1014.0
20260905224525 35 65 1.6 12.9 0.08 0.08 0.08 48 1014.2
20260905223024 37 41 1.6 8.0 0.00 0.00 0.00 38 1013.3
20260905221528 36 144 1.6 3.2 0.00 0.00 0.00 39 1013.3
20260905220031 36 346 0.0 3.2 0.00 0.00 0.00 45 1013.3
20260905214533 36 333 0.0 3.2 0.00 0.00 0.00 37 1013.5
20260905213037 37 311 1.6 6.4 0.00 0.00 0.00 38 1013.4
20260905211538 37 269 3.2 12.9 0.00 0.00 0.00 38 1013.8
20260905210031 37 323 3.2 12.9 0.00 0.00 0.00 37 1014.0
20260905204531 37 327 4.8 9.7 0.00 0.00 0.00 37 1014.3
20260905203020 37 10 1.6 8.0 0.00 0.00 0.00 38 1014.4
20260905201524 37 105 4.8 14.5 0.00 0.00 0.00 38 1014.6
20260905200033 37 46 1.6 6.4 0.00 0.00 0.00 40 1014.9
20260905194512 37 343 1.6 8.0 0.00 0.00 0.00 38 1015.1
20260905193017 37 72 4.8 12.9 0.00 0.00 0.00 40 1015.2
20260905191523 36 40 3.2 11.3 0.00 0.00 0.00 40 1015.4
20260905190010 36 90 3.2 6.4 0.00 0.00 0.00 40 1015.7
20260905184508 36 360 3.2 12.9 0.00 0.00 0.00 43 1015.9
20260905183016 36 63 1.6 4.8 0.00 0.00 0.00 42 1016.1
20260905181531 36 348 1.6 9.7 0.00 0.00 0.00 42 1016.3
20260905180029 36 175 6.4 14.5 0.00 0.00 0.00 45 1016.3
20260905174508 35 76 3.2 8.0 0.00 0.00 0.00 46 1016.7
20260905173013 35 36 3.2 12.9 0.00 0.00 0.00 46 1016.8
20260905171524 35 238 6.4 16.1 0.00 0.00 0.00 49 1017.1
20260905170026 35 313 3.2 9.7 0.00 0.00 0.00 49 1017.2